Location: St. Louis
(38.6270°N, 90.1994°W)
Time: 14:22:46
(UTC-06:00)

Vanguard 1 - Pass Details

Date: 04 December 2021
Orbit: 652 x 3830 km, 34.2° (Epoch: 19 January)

Event Time Altitude Azimuth Distance (km) Brightness Sun altitude
Rises 20:45:02 0° 199° (SSW) 6,182 14.2 -47.2°
Reaches altitude 10° 20:49:24 10° 189° (S) 5,590 13.8 -48.1°
Enters shadow 20:54:20 21° 174° (S) 5,128 13.5 -49.0°
Maximum altitude 21:04:32 32° 134° (SE) 5,002 - -51.0°
Drops below altitude 10° 21:23:02 10° 82° (E) 6,905 - -54.5°
Sets 21:29:09 0° 74° (ENE) 7,790 - -55.6°
